Location: Unspecified
(41.5516°N, 88.1098°W)
Time: 20:37:51
(UTC-05:00)

Cosmos 2058 - Visible Passes

Search period start: 22 October 2014 00:00
Search period end: 01 November 2014 00:00
Orbit: 571 x 592 km, 82.5° (Epoch: 22 October)

Date Brightness Start Highest point End Pass type
(mag) Time Alt. Az. Time Alt. Az. Time Alt. Az.
22 Oct 3.1 05:36:24 10° S 05:40:32 72° E 05:44:44 10° NNE visible
23 Oct 2.8 05:41:57 10° S 05:46:07 79° W 05:50:21 10° N visible
24 Oct 6.2 04:13:47 10° ESE 04:15:11 12° E 04:16:36 10° ENE visible
24 Oct 3.0 05:47:38 10° SSW 05:51:43 54° W 05:55:52 10° N visible
25 Oct 5.8 04:18:00 10° SE 04:20:36 16° E 04:23:14 10° NE visible
25 Oct 3.4 05:53:31 11° SW 05:57:20 38° WNW 06:01:17 10° N visible
26 Oct 5.2 04:25:18 21° ESE 04:26:03 23° E 04:29:20 10° NE visible
26 Oct 3.8 06:01:48 24° WSW 06:02:58 27° WNW 06:06:36 10° NNW visible
27 Oct 4.9 04:32:35 27° ENE 04:32:35 27° ENE 04:35:14 10° NNE visible
27 Oct 4.3 06:09:03 20° WNW 06:09:03 20° WNW 06:11:47 10° NNW visible
28 Oct 5.1 04:39:23 21° NNE 04:39:23 21° NNE 04:41:00 10° NNE visible
28 Oct 4.9 06:15:50 13° NW 06:15:50 13° NW 06:16:44 10° NW visible
29 Oct 5.4 04:45:55 15° NNE 04:45:55 15° NNE 04:46:39 10° NNE visible
